Regional Weather Roundup
Issued by NWS

Home | Current Version | Previous Version | Graphics & Text | Print | Product List | Glossary Off
Versions: 1 2 3 4 5 6 7 8 9 10 11 12 13 14 15 16 17 18 19 20 21 22 23 24 25 26 27 28 29 30 31 32 33 34 35 36 37 38 39 40 41 42 43 44 45 46 47 48 49 50

000
ASUS43 KMKX 311921
RWRWI

WISCONSIN REGIONAL WEATHER ROUNDUP
NATIONAL WEATHER SERVICE MILWAUKEE/SULLIVAN WI
200 PM CDT TUE MAY 31 2016

NOTE: "FAIR" INDICATES FEW OR NO CLOUDS BELOW 12,000 FEET WITH NO
SIGNIFICANT WEATHER AND/OR OBSTRUCTIONS TO VISIBILITY.

WIZ001-002-006>008-014>016-023>028-312000-
NORTHWEST WISCONSIN

CITY           SKY/WX    TMP DP  RH WIND       PRES   REMARKS
SUPERIOR ARPT  LGT RAIN  41  41  99 NE16G24   29.95S
ASHLAND        CLOUDY    51  47  86 N10       29.92F
HAYWARD        LGT RAIN  67  60  78 S6        29.90S
SIREN          CLOUDY    70  60  70 S8G20     29.88S
CUMBERLAND     LGT RAIN  66  61  82 S9        29.90S
RICE LAKE      LGT RAIN  69  62  78 CALM      29.91S
CHETEK         CLOUDY    71  64  78 CALM      29.89F
LADYSMITH      MOSUNNY   77  61  57 SE15G24   29.91F
EAU CLAIRE     CLOUDY    79  60  52 S14G21    29.86F HX  80
MENOMONIE      CLOUDY    75  72  90 S6        29.88F
NEW RICHMOND   CLOUDY    70  61  73 SW7       29.88F
OSCEOLA        CLOUDY    70  62  77 S6        29.90F
$$

WIZ003>005-009-010-017-018-312000-
NORTH CENTRAL WISCONSIN

CITY           SKY/WX    TMP DP  RH WIND       PRES   REMARKS
MANITOWISH WTR NOT AVBL
ARBOR VITAE      N/A    N/A N/A N/A MISG        N/A
WOODRUFF         N/A    N/A N/A N/A MISG        N/A
RHINELANDER    PTSUNNY   73  51  46 S15G23    30.00S
EAGLE RIVER      N/A     71  49  45 SE13G23   29.99F
LAND O LAKES   CLOUDY    70  49  47 SE14G21   30.01S
PHILLIPS       CLOUDY    73  59  61 SE10G20   29.92F
TOMAHAWK       MOSUNNY   73  55  53 SE10      29.97F
MEDFORD        MOSUNNY   73  60  64 SE14G20   29.95S
MERRILL        CLOUDY    72  56  57 SE15G23   29.99F
$$

WIZ029-030-035-036-043>047-312000-
CENTRAL WISCONSIN

CITY           SKY/WX    TMP DP  RH WIND       PRES   REMARKS
WAUSAU         CLOUDY    73  55  53 SE15      29.97S
MOSINEE        MOSUNNY   70  57  64 SE14      30.00S
MARSHFIELD     CLOUDY    73  59  61 S15G25    29.95F
STEVENS POINT  CLOUDY    68  58  72 SE6       29.99F
WAUPACA        CLOUDY    73  57  58 E13       30.01S
WAUTOMA        RAIN     N/A N/A N/A SW12G23   30.03R
WISC RAPIDS    CLOUDY    78  60  53 SE16G24   29.98S
CAMP DOUGLAS   MOSUNNY   73  70  88 SE15G24   29.94F
$$

WIZ011>013-019>022-031-037>040-048>050-312000-
NORTHEAST WISCONSIN

CITY           SKY/WX    TMP DP  RH WIND       PRES   REMARKS
ANTIGO         PTSUNNY   68  55  63 SE15      30.02S
SHAWANO        MOSUNNY   70  53  54 E12       30.04S
OCONTO         SUNNY     64  47  53 NE8       30.05S
STURGEON BAY   MOSUNNY   64  50  59 E8        30.05F
GREEN BAY      SUNNY     69  56  62 NE10      30.04R
MANITOWOC      MOSUNNY   64  53  67 VRB7      30.04F
APPLETON       MOSUNNY   72  54  53 E9        30.00F
CLINTONVILLE   CLOUDY    70  54  56 E8G17     30.02S
OSHKOSH        CLOUDY    73  56  54 S10       30.01R
$$

WIZ032>034-041-042-053>061-312000-
SOUTHWEST WISCONSIN

CITY           SKY/WX    TMP DP  RH WIND       PRES   REMARKS
LA CROSSE      MOSUNNY   83  62  49 S9        29.88F HX  84
SPARTA         PTSUNNY   79  62  55 S12G20    29.92F HX  81
VIROQUA        PTSUNNY   78  64  61 SE13G20   29.93F
BOSCOBEL       NOT AVBL
PRAIRIE DU CHI CLOUDY    76  63  64 SE9       29.90S
PLATTEVILLE    CLOUDY    69  65  86 SE16      29.97F
$$

WIZ056-057-062-063-064-067-068-312000-
SOUTH CENTRAL WISCONSIN

CITY           SKY/WX    TMP DP  RH WIND       PRES   REMARKS
REEDSBURG      CLOUDY    66  65  94 SE7       29.97F
BARABOO/DELLS  LGT RAIN  66  62  85 S10G16    29.98F
LONE ROCK      CLOUDY    67  63  87 E7        29.98S
MINERAL POINT  CLOUDY    68  64  88 SE10      29.98S
MADISON        LGT RAIN  67  63  87 S12       30.01S
MIDDLETON      CLOUDY    69  64  83 SE9       30.01F
WATERTOWN      LGT RAIN  65  65 100 S7        30.04S
MONROE         LGT RAIN  63  61  94 SE6       30.01F
JANESVILLE     LGT RAIN  64  64 100 CALM      30.03F
$$

WIZ051-052-058>065-066-070>072-312000-
SOUTHEAST WISCONSIN

CITY           SKY/WX    TMP DP  RH WIND       PRES   REMARKS
MILWAUKEE      PTSUNNY   68  55  63 E9        30.01S
WAUKESHA       PTSUNNY   72  50  46 SW6       30.04R
MILWAUKEE/TIMM CLOUDY    72  50  46 S6        30.04R
RACINE         MOSUNNY   72  52  49 SE8       30.02F
BURLINGTON     LGT RAIN  64  60  86 W13G20    30.04R
KENOSHA        MOSUNNY   74  56  53 E10       30.00F
FOND DU LAC    CLOUDY    73  55  53 S14G24    30.03R
SHEBOYGAN      CLOUDY    64  53  67 E9        30.03S
WEST BEND      CLOUDY    68  52  56 S3        30.05R
JUNEAU         LGT RAIN  65  59  82 S14G21    30.05R
$$

LSZ147-162-312000-
LAKE SUPERIOR

STATION/POSITION TIME  TEMP    WIND        PRES    WAVE
                       AIR SEA DIR/SP/G            HT/PER
                 (UTC) (F)     (DEG/KT/KT) (MB)    (FT/S)
W MID LAKE BUOY  1850   42 38   70/ 17/ 21 1015.9F   3/ 5
DEVILS ISLAND    1900   43      70/ 22/ 25 1014.7F
SAXON HARBOR     1800          140/  1/  9 1012.5F
$$

LMZ867-665-643>646-312000-
LAKE MICHIGAN

STATION/POSITION TIME  TEMP    WIND        PRES    WAVE
                       AIR SEA DIR/SP/G            HT/PER
                 (UTC) (F)     (DEG/KT/KT) (MB)    (FT/S)
CHAMBERS ISLAND  1800   55      10/ 10/ 12 1018.6F
N MID LAKE BUOY  1850   49 48   50/  6/  6 1018.2S   1/ 3
NORTHPORT PIER   1800   53      80/  7/  9 1018.6F
SISTER BAY       1820   67     110/ 11/ 16   N/A
ALGOMA LAKESHORE 1817           40/ 19/ 24   N/A
KEWAUNEE LAKESHO 1900   52      30/ 10/ 13 1016.9F
SHEBOYGAN LAKESH 1900   50     360/  9/ 10 1017.6F
PORT WASHINGTON  1840   55      30/  8/ 11 1017.6S
S MID LAKE BUOY  1850   59 55   70/  4/  6 1015.8F   0
KENOSHA   LAKESH 1900   57      10/  8/  8 1015.6F
$$

TC  - TEMPERATURE IN CELSIUS
VSB - VISIBILITY IN STATUTE MILES
WCI - WIND CHILL INDEX
HX  - HEAT INDEX




USA.gov is the U.S. government's official web portal to all federal, state and local government web resources and services.